owner,sensor,date,latitude,longitude,relative_humidity,qcFlag 
DISL,ioos:station:DISL:PPTA:1,2015-05-01T00:00:00Z,30.2791,-87.5561,53.04,1111122 
DISL,ioos:station:DISL:PPTA:1,2015-05-01T00:30:00Z,30.2791,-87.5561,56.63,1111122 
DISL,ioos:station:DISL:PPTA:1,2015-05-01T01:00:00Z,30.2791,-87.5561,62.98,1111122 
DISL,ioos:station:DISL:PPTA:1,2015-05-01T01:30:00Z,30.2791,-87.5561,64.9,1111122 
DISL,ioos:station:DISL:PPTA:1,2015-05-01T02:00:00Z,30.2791,-87.5561,68.33,1111122 
DISL,ioos:station:DISL:PPTA:1,2015-05-01T02:30:00Z,30.2791,-87.5561,70.0,1111122 
DISL,ioos:station:DISL:PPTA:1,2015-05-01T03:00:00Z,30.2791,-87.5561,70.89,1111122 
DISL,ioos:station:DISL:PPTA:1,2015-05-01T03:30:00Z,30.2791,-87.5561,74.03,1111122 
DISL,ioos:station:DISL:PPTA:1,2015-05-01T04:00:00Z,30.2791,-87.5561,76.52,1111122 
DISL,ioos:station:DISL:PPTA:1,2015-05-01T04:30:00Z,30.2791,-87.5561,75.71,1111122 
DISL,ioos:station:DISL:PPTA:1,2015-05-01T05:00:00Z,30.2791,-87.5561,77.11,1111122 
DISL,ioos:station:DISL:PPTA:1,2015-05-01T05:30:00Z,30.2791,-87.5561,75.78,1111122 
DISL,ioos:station:DISL:PPTA:1,2015-05-01T06:00:00Z,30.2791,-87.5561,81.4,1111122 
DISL,ioos:station:DISL:PPTA:1,2015-05-01T06:30:00Z,30.2791,-87.5561,79.86,1111122 
DISL,ioos:station:DISL:PPTA:1,2015-05-01T07:00:00Z,30.2791,-87.5561,73.4,1111122 
DISL,ioos:station:DISL:PPTA:1,2015-05-01T07:30:00Z,30.2791,-87.5561,78.18,1111122 
DISL,ioos:station:DISL:PPTA:1,2015-05-01T08:00:00Z,30.2791,-87.5561,76.95,1111122 
DISL,ioos:station:DISL:PPTA:1,2015-05-01T08:30:00Z,30.2791,-87.5561,78.87,1111122 
DISL,ioos:station:DISL:PPTA:1,2015-05-01T09:00:00Z,30.2791,-87.5561,75.42,1111122 
DISL,ioos:station:DISL:PPTA:1,2015-05-01T09:30:00Z,30.2791,-87.5561,68.32,1111122 
DISL,ioos:station:DISL:PPTA:1,2015-05-01T10:00:00Z,30.2791,-87.5561,65.11,1111122 
DISL,ioos:station:DISL:PPTA:1,2015-05-01T10:30:00Z,30.2791,-87.5561,67.87,1111122 
DISL,ioos:station:DISL:PPTA:1,2015-05-01T11:00:00Z,30.2791,-87.5561,68.35,1111122 
DISL,ioos:station:DISL:PPTA:1,2015-05-01T11:30:00Z,30.2791,-87.5561,68.18,1111122 
DISL,ioos:station:DISL:PPTA:1,2015-05-01T12:00:00Z,30.2791,-87.5561,68.66,1111122 
DISL,ioos:station:DISL:PPTA:1,2015-05-01T12:30:00Z,30.2791,-87.5561,69.74,1111122 
DISL,ioos:station:DISL:PPTA:1,2015-05-01T13:00:00Z,30.2791,-87.5561,65.95,1111122 
DISL,ioos:station:DISL:PPTA:1,2015-05-01T13:30:00Z,30.2791,-87.5561,60.31,1111122 
DISL,ioos:station:DISL:PPTA:1,2015-05-01T14:00:00Z,30.2791,-87.5561,55.7,1111122 
DISL,ioos:station:DISL:PPTA:1,2015-05-01T14:30:00Z,30.2791,-87.5561,46.44,1111122 
DISL,ioos:station:DISL:PPTA:1,2015-05-01T15:00:00Z,30.2791,-87.5561,46.67,1111122 
DISL,ioos:station:DISL:PPTA:1,2015-05-01T15:30:00Z,30.2791,-87.5561,46.12,1111122 
DISL,ioos:station:DISL:PPTA:1,2015-05-01T16:00:00Z,30.2791,-87.5561,41.13,1111122 
DISL,ioos:station:DISL:PPTA:1,2015-05-01T16:30:00Z,30.2791,-87.5561,40.48,1111122 
DISL,ioos:station:DISL:PPTA:1,2015-05-01T17:00:00Z,30.2791,-87.5561,46.08,1111122 
DISL,ioos:station:DISL:PPTA:1,2015-05-01T17:30:00Z,30.2791,-87.5561,37.54,1111122 
DISL,ioos:station:DISL:PPTA:1,2015-05-01T18:00:00Z,30.2791,-87.5561,37.3,1111122 
DISL,ioos:station:DISL:PPTA:1,2015-05-01T18:30:00Z,30.2791,-87.5561,32.18,1111122 
DISL,ioos:station:DISL:PPTA:1,2015-05-01T19:00:00Z,30.2791,-87.5561,41.38,1111122 
DISL,ioos:station:DISL:PPTA:1,2015-05-01T19:30:00Z,30.2791,-87.5561,33.2,1111122 
DISL,ioos:station:DISL:PPTA:1,2015-05-01T20:00:00Z,30.2791,-87.5561,30.72,1111122 
DISL,ioos:station:DISL:PPTA:1,2015-05-01T20:30:00Z,30.2791,-87.5561,30.11,1111122 
DISL,ioos:station:DISL:PPTA:1,2015-05-01T21:00:00Z,30.2791,-87.5561,28.47,1111122 
DISL,ioos:station:DISL:PPTA:1,2015-05-01T21:30:00Z,30.2791,-87.5561,29.25,1111122 
DISL,ioos:station:DISL:PPTA:1,2015-05-01T22:00:00Z,30.2791,-87.5561,27.04,1111122 
DISL,ioos:station:DISL:PPTA:1,2015-05-01T22:30:00Z,30.2791,-87.5561,31.78,1111122 
DISL,ioos:station:DISL:PPTA:1,2015-05-01T23:00:00Z,30.2791,-87.5561,25.03,1111122 
DISL,ioos:station:DISL:PPTA:1,2015-05-01T23:30:00Z,30.2791,-87.5561,31.24,1111122 
DISL,ioos:station:DISL:PPTA:1,2015-05-02T00:00:00Z,30.2791,-87.5561,32.81,1111122 
DISL,ioos:station:DISL:PPTA:1,2015-05-02T00:30:00Z,30.2791,-87.5561,36.87,1111122 
DISL,ioos:station:DISL:PPTA:1,2015-05-02T01:00:00Z,30.2791,-87.5561,33.56,1111122 
DISL,ioos:station:DISL:PPTA:1,2015-05-02T01:30:00Z,30.2791,-87.5561,39.92,1111122 
DISL,ioos:station:DISL:PPTA:1,2015-05-02T02:00:00Z,30.2791,-87.5561,41.97,1111122 
DISL,ioos:station:DISL:PPTA:1,2015-05-02T02:30:00Z,30.2791,-87.5561,45.17,1111122 
DISL,ioos:station:DISL:PPTA:1,2015-05-02T03:00:00Z,30.2791,-87.5561,48.87,1111122 
DISL,ioos:station:DISL:PPTA:1,2015-05-02T03:30:00Z,30.2791,-87.5561,45.29,1111122 
DISL,ioos:station:DISL:PPTA:1,2015-05-02T04:00:00Z,30.2791,-87.5561,47.51,1111122 
DISL,ioos:station:DISL:PPTA:1,2015-05-02T04:30:00Z,30.2791,-87.5561,48.36,1111122 
DISL,ioos:station:DISL:PPTA:1,2015-05-02T05:00:00Z,30.2791,-87.5561,50.75,1111122 
DISL,ioos:station:DISL:PPTA:1,2015-05-02T05:30:00Z,30.2791,-87.5561,55.67,1111122 
DISL,ioos:station:DISL:PPTA:1,2015-05-02T06:00:00Z,30.2791,-87.5561,52.74,1111122 
DISL,ioos:station:DISL:PPTA:1,2015-05-02T06:30:00Z,30.2791,-87.5561,55.1,1111122 
DISL,ioos:station:DISL:PPTA:1,2015-05-02T07:00:00Z,30.2791,-87.5561,54.73,1111122 
DISL,ioos:station:DISL:PPTA:1,2015-05-02T07:30:00Z,30.2791,-87.5561,57.77,1111122 
DISL,ioos:station:DISL:PPTA:1,2015-05-02T08:00:00Z,30.2791,-87.5561,58.9,1111122 
DISL,ioos:station:DISL:PPTA:1,2015-05-02T08:30:00Z,30.2791,-87.5561,61.06,1111122 
DISL,ioos:station:DISL:PPTA:1,2015-05-02T09:00:00Z,30.2791,-87.5561,58.74,1111122 
DISL,ioos:station:DISL:PPTA:1,2015-05-02T09:30:00Z,30.2791,-87.5561,59.49,1111122 
DISL,ioos:station:DISL:PPTA:1,2015-05-02T10:00:00Z,30.2791,-87.5561,62.12,1111122 
DISL,ioos:station:DISL:PPTA:1,2015-05-02T10:30:00Z,30.2791,-87.5561,62.09,1111122 
DISL,ioos:station:DISL:PPTA:1,2015-05-02T11:00:00Z,30.2791,-87.5561,69.67,1111122 
DISL,ioos:station:DISL:PPTA:1,2015-05-02T11:30:00Z,30.2791,-87.5561,69.07,1111122 
DISL,ioos:station:DISL:PPTA:1,2015-05-02T12:00:00Z,30.2791,-87.5561,69.13,1111122 
DISL,ioos:station:DISL:PPTA:1,2015-05-02T12:30:00Z,30.2791,-87.5561,68.68,1111122 
DISL,ioos:station:DISL:PPTA:1,2015-05-02T13:00:00Z,30.2791,-87.5561,67.25,1111122 
DISL,ioos:station:DISL:PPTA:1,2015-05-02T13:30:00Z,30.2791,-87.5561,61.4,1111122 
DISL,ioos:station:DISL:PPTA:1,2015-05-02T14:00:00Z,30.2791,-87.5561,55.14,1111122 
DISL,ioos:station:DISL:PPTA:1,2015-05-02T14:30:00Z,30.2791,-87.5561,50.56,1111122 
DISL,ioos:station:DISL:PPTA:1,2015-05-02T15:00:00Z,30.2791,-87.5561,51.4,1111122 
DISL,ioos:station:DISL:PPTA:1,2015-05-02T15:30:00Z,30.2791,-87.5561,43.66,1111122 
DISL,ioos:station:DISL:PPTA:1,2015-05-02T16:00:00Z,30.2791,-87.5561,56.67,1111122 
DISL,ioos:station:DISL:PPTA:1,2015-05-02T16:30:00Z,30.2791,-87.5561,47.83,1111122 
DISL,ioos:station:DISL:PPTA:1,2015-05-02T17:00:00Z,30.2791,-87.5561,47.05,1111122 
DISL,ioos:station:DISL:PPTA:1,2015-05-02T17:30:00Z,30.2791,-87.5561,46.71,1111122 
DISL,ioos:station:DISL:PPTA:1,2015-05-02T18:00:00Z,30.2791,-87.5561,44.8,1111122 
DISL,ioos:station:DISL:PPTA:1,2015-05-02T18:30:00Z,30.2791,-87.5561,44.32,1111122 
DISL,ioos:station:DISL:PPTA:1,2015-05-02T19:00:00Z,30.2791,-87.5561,43.06,1111122 
DISL,ioos:station:DISL:PPTA:1,2015-05-02T19:30:00Z,30.2791,-87.5561,44.59,1111122 
DISL,ioos:station:DISL:PPTA:1,2015-05-02T20:00:00Z,30.2791,-87.5561,43.68,1111122 
DISL,ioos:station:DISL:PPTA:1,2015-05-02T20:30:00Z,30.2791,-87.5561,48.45,1111122 
DISL,ioos:station:DISL:PPTA:1,2015-05-02T21:00:00Z,30.2791,-87.5561,47.26,1111122 
DISL,ioos:station:DISL:PPTA:1,2015-05-02T21:30:00Z,30.2791,-87.5561,48.5,1111122 
DISL,ioos:station:DISL:PPTA:1,2015-05-02T22:00:00Z,30.2791,-87.5561,47.71,1111122 
DISL,ioos:station:DISL:PPTA:1,2015-05-02T22:30:00Z,30.2791,-87.5561,47.92,1111122 
DISL,ioos:station:DISL:PPTA:1,2015-05-02T23:00:00Z,30.2791,-87.5561,48.87,1111122 
DISL,ioos:station:DISL:PPTA:1,2015-05-02T23:30:00Z,30.2791,-87.5561,47.92,1111122 
DISL,ioos:station:DISL:PPTA:1,2015-05-03T00:00:00Z,30.2791,-87.5561,50.25,1111122 
DISL,ioos:station:DISL:PPTA:1,2015-05-03T00:30:00Z,30.2791,-87.5561,52.95,1111122 
DISL,ioos:station:DISL:PPTA:1,2015-05-03T01:00:00Z,30.2791,-87.5561,52.34,1111122 
DISL,ioos:station:DISL:PPTA:1,2015-05-03T01:30:00Z,30.2791,-87.5561,52.38,1111122 
DISL,ioos:station:DISL:PPTA:1,2015-05-03T02:00:00Z,30.2791,-87.5561,53.99,1111122 
DISL,ioos:station:DISL:PPTA:1,2015-05-03T02:30:00Z,30.2791,-87.5561,51.84,1111122 
DISL,ioos:station:DISL:PPTA:1,2015-05-03T03:00:00Z,30.2791,-87.5561,55.09,1111122 
DISL,ioos:station:DISL:PPTA:1,2015-05-03T03:30:00Z,30.2791,-87.5561,53.72,1111122 
DISL,ioos:station:DISL:PPTA:1,2015-05-03T04:00:00Z,30.2791,-87.5561,55.53,1111122 
DISL,ioos:station:DISL:PPTA:1,2015-05-03T04:30:00Z,30.2791,-87.5561,66.09,1111122 
DISL,ioos:station:DISL:PPTA:1,2015-05-03T05:00:00Z,30.2791,-87.5561,65.16,1111122 
DISL,ioos:station:DISL:PPTA:1,2015-05-03T05:30:00Z,30.2791,-87.5561,70.15,1111122 
DISL,ioos:station:DISL:PPTA:1,2015-05-03T06:00:00Z,30.2791,-87.5561,61.28,1111122 
DISL,ioos:station:DISL:PPTA:1,2015-05-03T06:30:00Z,30.2791,-87.5561,59.34,1111122 
DISL,ioos:station:DISL:PPTA:1,2015-05-03T07:00:00Z,30.2791,-87.5561,60.43,1111122 
DISL,ioos:station:DISL:PPTA:1,2015-05-03T07:30:00Z,30.2791,-87.5561,79.69,1111122 
DISL,ioos:station:DISL:PPTA:1,2015-05-03T08:00:00Z,30.2791,-87.5561,83.8,1111122 
DISL,ioos:station:DISL:PPTA:1,2015-05-03T08:30:00Z,30.2791,-87.5561,88.4,1111122 
DISL,ioos:station:DISL:PPTA:1,2015-05-03T09:00:00Z,30.2791,-87.5561,87.6,1111122 
DISL,ioos:station:DISL:PPTA:1,2015-05-03T09:30:00Z,30.2791,-87.5561,88.6,1111122 
DISL,ioos:station:DISL:PPTA:1,2015-05-03T10:00:00Z,30.2791,-87.5561,88.6,1111122 
DISL,ioos:station:DISL:PPTA:1,2015-05-03T10:30:00Z,30.2791,-87.5561,89.9,1111122 
DISL,ioos:station:DISL:PPTA:1,2015-05-03T11:00:00Z,30.2791,-87.5561,86.5,1111122 
DISL,ioos:station:DISL:PPTA:1,2015-05-03T11:30:00Z,30.2791,-87.5561,85.7,1111122 
DISL,ioos:station:DISL:PPTA:1,2015-05-03T12:00:00Z,30.2791,-87.5561,84.2,1111122 
DISL,ioos:station:DISL:PPTA:1,2015-05-03T12:30:00Z,30.2791,-87.5561,79.27,1111122 
DISL,ioos:station:DISL:PPTA:1,2015-05-03T13:00:00Z,30.2791,-87.5561,73.62,1111122 
DISL,ioos:station:DISL:PPTA:1,2015-05-03T13:30:00Z,30.2791,-87.5561,70.46,1111122 
DISL,ioos:station:DISL:PPTA:1,2015-05-03T14:00:00Z,30.2791,-87.5561,71.29,1111122 
DISL,ioos:station:DISL:PPTA:1,2015-05-03T14:30:00Z,30.2791,-87.5561,70.87,1111122 
DISL,ioos:station:DISL:PPTA:1,2015-05-03T15:00:00Z,30.2791,-87.5561,62.79,1111122 
DISL,ioos:station:DISL:PPTA:1,2015-05-03T15:30:00Z,30.2791,-87.5561,63.72,1111122 
DISL,ioos:station:DISL:PPTA:1,2015-05-03T16:00:00Z,30.2791,-87.5561,63.14,1111122 
DISL,ioos:station:DISL:PPTA:1,2015-05-03T16:30:00Z,30.2791,-87.5561,59.85,1111122 
DISL,ioos:station:DISL:PPTA:1,2015-05-03T17:00:00Z,30.2791,-87.5561,61.01,1111122 
DISL,ioos:station:DISL:PPTA:1,2015-05-03T17:30:00Z,30.2791,-87.5561,59.75,1111122 
DISL,ioos:station:DISL:PPTA:1,2015-05-03T18:00:00Z,30.2791,-87.5561,59.72,1111122 
DISL,ioos:station:DISL:PPTA:1,2015-05-03T18:30:00Z,30.2791,-87.5561,59.8,1111122 
DISL,ioos:station:DISL:PPTA:1,2015-05-03T19:00:00Z,30.2791,-87.5561,61.0,1111122 
DISL,ioos:station:DISL:PPTA:1,2015-05-03T19:30:00Z,30.2791,-87.5561,62.12,1111122 
DISL,ioos:station:DISL:PPTA:1,2015-05-03T20:00:00Z,30.2791,-87.5561,65.8,1111122 
DISL,ioos:station:DISL:PPTA:1,2015-05-03T20:30:00Z,30.2791,-87.5561,66.32,1111122 
DISL,ioos:station:DISL:PPTA:1,2015-05-03T21:00:00Z,30.2791,-87.5561,66.71,1111122 
DISL,ioos:station:DISL:PPTA:1,2015-05-03T21:30:00Z,30.2791,-87.5561,65.48,1111122 
DISL,ioos:station:DISL:PPTA:1,2015-05-03T22:00:00Z,30.2791,-87.5561,67.29,1111122 
DISL,ioos:station:DISL:PPTA:1,2015-05-03T22:30:00Z,30.2791,-87.5561,68.55,1111122 
DISL,ioos:station:DISL:PPTA:1,2015-05-03T23:00:00Z,30.2791,-87.5561,70.33,1111122 
DISL,ioos:station:DISL:PPTA:1,2015-05-03T23:30:00Z,30.2791,-87.5561,73.57,1111122 
DISL,ioos:station:DISL:PPTA:1,2015-05-04T00:00:00Z,30.2791,-87.5561,75.82,1111122 
DISL,ioos:station:DISL:PPTA:1,2015-05-04T00:30:00Z,30.2791,-87.5561,75.62,1111122 
DISL,ioos:station:DISL:PPTA:1,2015-05-04T01:00:00Z,30.2791,-87.5561,76.65,1111122 
DISL,ioos:station:DISL:PPTA:1,2015-05-04T01:30:00Z,30.2791,-87.5561,77.07,1111122 
DISL,ioos:station:DISL:PPTA:1,2015-05-04T02:00:00Z,30.2791,-87.5561,76.9,1111122 
DISL,ioos:station:DISL:PPTA:1,2015-05-04T02:30:00Z,30.2791,-87.5561,78.88,1111122 
DISL,ioos:station:DISL:PPTA:1,2015-05-04T03:00:00Z,30.2791,-87.5561,76.59,1111122 
DISL,ioos:station:DISL:PPTA:1,2015-05-04T03:30:00Z,30.2791,-87.5561,75.84,1111122 
DISL,ioos:station:DISL:PPTA:1,2015-05-04T04:00:00Z,30.2791,-87.5561,73.56,1111122 
DISL,ioos:station:DISL:PPTA:1,2015-05-04T04:30:00Z,30.2791,-87.5561,75.03,1111122 
DISL,ioos:station:DISL:PPTA:1,2015-05-04T05:00:00Z,30.2791,-87.5561,73.66,1111122 
DISL,ioos:station:DISL:PPTA:1,2015-05-04T05:30:00Z,30.2791,-87.5561,70.83,1111122 
DISL,ioos:station:DISL:PPTA:1,2015-05-04T06:00:00Z,30.2791,-87.5561,68.61,1111122 
DISL,ioos:station:DISL:PPTA:1,2015-05-04T06:30:00Z,30.2791,-87.5561,65.85,1111122 
DISL,ioos:station:DISL:PPTA:1,2015-05-04T07:00:00Z,30.2791,-87.5561,68.58,1111122 
DISL,ioos:station:DISL:PPTA:1,2015-05-04T07:30:00Z,30.2791,-87.5561,68.13,1111122 
DISL,ioos:station:DISL:PPTA:1,2015-05-04T08:00:00Z,30.2791,-87.5561,70.66,1111122 
DISL,ioos:station:DISL:PPTA:1,2015-05-04T08:30:00Z,30.2791,-87.5561,68.78,1111122 
DISL,ioos:station:DISL:PPTA:1,2015-05-04T09:00:00Z,30.2791,-87.5561,69.13,1111122 
DISL,ioos:station:DISL:PPTA:1,2015-05-04T09:30:00Z,30.2791,-87.5561,71.07,1111122 
DISL,ioos:station:DISL:PPTA:1,2015-05-04T10:00:00Z,30.2791,-87.5561,72.03,1111122 
DISL,ioos:station:DISL:PPTA:1,2015-05-04T10:30:00Z,30.2791,-87.5561,72.21,1111122 
DISL,ioos:station:DISL:PPTA:1,2015-05-04T11:00:00Z,30.2791,-87.5561,71.52,1111122 
DISL,ioos:station:DISL:PPTA:1,2015-05-04T11:30:00Z,30.2791,-87.5561,71.79,1111122 
DISL,ioos:station:DISL:PPTA:1,2015-05-04T12:00:00Z,30.2791,-87.5561,70.11,1111122 
DISL,ioos:station:DISL:PPTA:1,2015-05-04T12:30:00Z,30.2791,-87.5561,72.45,1111122 
DISL,ioos:station:DISL:PPTA:1,2015-05-04T13:00:00Z,30.2791,-87.5561,71.28,1111122 
DISL,ioos:station:DISL:PPTA:1,2015-05-04T13:30:00Z,30.2791,-87.5561,74.11,1111122 
DISL,ioos:station:DISL:PPTA:1,2015-05-04T14:00:00Z,30.2791,-87.5561,75.62,1111122 
DISL,ioos:station:DISL:PPTA:1,2015-05-04T14:30:00Z,30.2791,-87.5561,77.7,1111122 
DISL,ioos:station:DISL:PPTA:1,2015-05-04T15:00:00Z,30.2791,-87.5561,78.21,1111122 
DISL,ioos:station:DISL:PPTA:1,2015-05-04T15:30:00Z,30.2791,-87.5561,76.64,1111122 
DISL,ioos:station:DISL:PPTA:1,2015-05-04T16:00:00Z,30.2791,-87.5561,75.44,1111122 
DISL,ioos:station:DISL:PPTA:1,2015-05-04T16:30:00Z,30.2791,-87.5561,76.59,1111122 
DISL,ioos:station:DISL:PPTA:1,2015-05-04T17:00:00Z,30.2791,-87.5561,75.73,1111122 
DISL,ioos:station:DISL:PPTA:1,2015-05-04T17:30:00Z,30.2791,-87.5561,73.59,1111122 
DISL,ioos:station:DISL:PPTA:1,2015-05-04T18:00:00Z,30.2791,-87.5561,73.52,1111122 
DISL,ioos:station:DISL:PPTA:1,2015-05-04T18:30:00Z,30.2791,-87.5561,73.52,1111122 
DISL,ioos:station:DISL:PPTA:1,2015-05-04T19:00:00Z,30.2791,-87.5561,71.1,1111122 
DISL,ioos:station:DISL:PPTA:1,2015-05-04T19:30:00Z,30.2791,-87.5561,70.08,1111122 
DISL,ioos:station:DISL:PPTA:1,2015-05-04T20:00:00Z,30.2791,-87.5561,71.05,1111122 
DISL,ioos:station:DISL:PPTA:1,2015-05-04T20:30:00Z,30.2791,-87.5561,69.96,1111122 
DISL,ioos:station:DISL:PPTA:1,2015-05-04T21:00:00Z,30.2791,-87.5561,70.99,1111122 
DISL,ioos:station:DISL:PPTA:1,2015-05-04T21:30:00Z,30.2791,-87.5561,68.05,1111122 
DISL,ioos:station:DISL:PPTA:1,2015-05-04T22:00:00Z,30.2791,-87.5561,65.36,1111122 
DISL,ioos:station:DISL:PPTA:1,2015-05-04T22:30:00Z,30.2791,-87.5561,62.77,1111122 
DISL,ioos:station:DISL:PPTA:1,2015-05-04T23:00:00Z,30.2791,-87.5561,64.8,1111122 
DISL,ioos:station:DISL:PPTA:1,2015-05-04T23:30:00Z,30.2791,-87.5561,66.95,1111122 
DISL,ioos:station:DISL:PPTA:1,2015-05-05T00:00:00Z,30.2791,-87.5561,70.05,1111122 
DISL,ioos:station:DISL:PPTA:1,2015-05-05T00:30:00Z,30.2791,-87.5561,63.17,1111122 
DISL,ioos:station:DISL:PPTA:1,2015-05-05T01:00:00Z,30.2791,-87.5561,62.01,1111122 
DISL,ioos:station:DISL:PPTA:1,2015-05-05T01:30:00Z,30.2791,-87.5561,68.22,1111122 
DISL,ioos:station:DISL:PPTA:1,2015-05-05T02:00:00Z,30.2791,-87.5561,68.81,1111122 
DISL,ioos:station:DISL:PPTA:1,2015-05-05T02:30:00Z,30.2791,-87.5561,68.0,1111122 
DISL,ioos:station:DISL:PPTA:1,2015-05-05T03:00:00Z,30.2791,-87.5561,69.5,1111122 
DISL,ioos:station:DISL:PPTA:1,2015-05-05T03:30:00Z,30.2791,-87.5561,68.95,1111122 
DISL,ioos:station:DISL:PPTA:1,2015-05-05T04:00:00Z,30.2791,-87.5561,67.35,1111122 
DISL,ioos:station:DISL:PPTA:1,2015-05-05T04:30:00Z,30.2791,-87.5561,69.53,1111122 
DISL,ioos:station:DISL:PPTA:1,2015-05-05T05:00:00Z,30.2791,-87.5561,70.32,1111122 
DISL,ioos:station:DISL:PPTA:1,2015-05-05T05:30:00Z,30.2791,-87.5561,71.65,1111122 
DISL,ioos:station:DISL:PPTA:1,2015-05-05T06:00:00Z,30.2791,-87.5561,73.56,1111122 
DISL,ioos:station:DISL:PPTA:1,2015-05-05T06:30:00Z,30.2791,-87.5561,83.3,1111122 
DISL,ioos:station:DISL:PPTA:1,2015-05-05T07:00:00Z,30.2791,-87.5561,86.1,1111122 
DISL,ioos:station:DISL:PPTA:1,2015-05-05T07:30:00Z,30.2791,-87.5561,79.81,1111122 
DISL,ioos:station:DISL:PPTA:1,2015-05-05T08:00:00Z,30.2791,-87.5561,80.8,1111122 
DISL,ioos:station:DISL:PPTA:1,2015-05-05T08:30:00Z,30.2791,-87.5561,82.6,1111122 
DISL,ioos:station:DISL:PPTA:1,2015-05-05T09:00:00Z,30.2791,-87.5561,85.1,1111122 
DISL,ioos:station:DISL:PPTA:1,2015-05-05T09:30:00Z,30.2791,-87.5561,87.7,1111122 
DISL,ioos:station:DISL:PPTA:1,2015-05-05T10:00:00Z,30.2791,-87.5561,90.1,1111122 
DISL,ioos:station:DISL:PPTA:1,2015-05-05T10:30:00Z,30.2791,-87.5561,89.7,1111122 
DISL,ioos:station:DISL:PPTA:1,2015-05-05T11:00:00Z,30.2791,-87.5561,78.87,1111122 
DISL,ioos:station:DISL:PPTA:1,2015-05-05T11:30:00Z,30.2791,-87.5561,75.77,1111122 
DISL,ioos:station:DISL:PPTA:1,2015-05-05T12:00:00Z,30.2791,-87.5561,76.59,1111122 
DISL,ioos:station:DISL:PPTA:1,2015-05-05T12:30:00Z,30.2791,-87.5561,79.74,1111122 
DISL,ioos:station:DISL:PPTA:1,2015-05-05T13:00:00Z,30.2791,-87.5561,80.2,1111122 
DISL,ioos:station:DISL:PPTA:1,2015-05-05T13:30:00Z,30.2791,-87.5561,81.2,1111122 
DISL,ioos:station:DISL:PPTA:1,2015-05-05T14:00:00Z,30.2791,-87.5561,79.54,1111122 
DISL,ioos:station:DISL:PPTA:1,2015-05-05T14:30:00Z,30.2791,-87.5561,77.21,1111122 
DISL,ioos:station:DISL:PPTA:1,2015-05-05T15:00:00Z,30.2791,-87.5561,79.48,1111122 
DISL,ioos:station:DISL:PPTA:1,2015-05-05T15:30:00Z,30.2791,-87.5561,78.08,1111122 
DISL,ioos:station:DISL:PPTA:1,2015-05-05T16:00:00Z,30.2791,-87.5561,76.75,1111122 
DISL,ioos:station:DISL:PPTA:1,2015-05-05T16:30:00Z,30.2791,-87.5561,74.84,1111122 
DISL,ioos:station:DISL:PPTA:1,2015-05-05T17:00:00Z,30.2791,-87.5561,69.79,1111122 
DISL,ioos:station:DISL:PPTA:1,2015-05-05T17:30:00Z,30.2791,-87.5561,66.93,1111122 
DISL,ioos:station:DISL:PPTA:1,2015-05-05T18:00:00Z,30.2791,-87.5561,65.94,1111122 
DISL,ioos:station:DISL:PPTA:1,2015-05-05T18:30:00Z,30.2791,-87.5561,61.37,1111122 
DISL,ioos:station:DISL:PPTA:1,2015-05-05T19:00:00Z,30.2791,-87.5561,62.8,1111122 
DISL,ioos:station:DISL:PPTA:1,2015-05-05T19:30:00Z,30.2791,-87.5561,63.25,1111122 
DISL,ioos:station:DISL:PPTA:1,2015-05-05T20:00:00Z,30.2791,-87.5561,62.67,1111122 
DISL,ioos:station:DISL:PPTA:1,2015-05-05T20:30:00Z,30.2791,-87.5561,63.48,1111122 
DISL,ioos:station:DISL:PPTA:1,2015-05-05T21:00:00Z,30.2791,-87.5561,63.18,1111122 
DISL,ioos:station:DISL:PPTA:1,2015-05-05T21:30:00Z,30.2791,-87.5561,64.15,1111122 
DISL,ioos:station:DISL:PPTA:1,2015-05-05T22:00:00Z,30.2791,-87.5561,64.29,1111122 
DISL,ioos:station:DISL:PPTA:1,2015-05-05T22:30:00Z,30.2791,-87.5561,61.29,1111122 
DISL,ioos:station:DISL:PPTA:1,2015-05-05T23:00:00Z,30.2791,-87.5561,59.38,1111122 
DISL,ioos:station:DISL:PPTA:1,2015-05-05T23:30:00Z,30.2791,-87.5561,60.16,1111122 
DISL,ioos:station:DISL:PPTA:1,2015-05-06T00:00:00Z,30.2791,-87.5561,63.4,1111122 
DISL,ioos:station:DISL:PPTA:1,2015-05-06T00:30:00Z,30.2791,-87.5561,67.36,1111122 
DISL,ioos:station:DISL:PPTA:1,2015-05-06T01:00:00Z,30.2791,-87.5561,69.89,1111122 
DISL,ioos:station:DISL:PPTA:1,2015-05-06T01:30:00Z,30.2791,-87.5561,71.6,1111122 
DISL,ioos:station:DISL:PPTA:1,2015-05-06T02:00:00Z,30.2791,-87.5561,73.76,1111122 
DISL,ioos:station:DISL:PPTA:1,2015-05-06T02:30:00Z,30.2791,-87.5561,76.9,1111122 
DISL,ioos:station:DISL:PPTA:1,2015-05-06T03:00:00Z,30.2791,-87.5561,77.75,1111122 
DISL,ioos:station:DISL:PPTA:1,2015-05-06T03:30:00Z,30.2791,-87.5561,78.37,1111122 
DISL,ioos:station:DISL:PPTA:1,2015-05-06T04:00:00Z,30.2791,-87.5561,81.4,1111122 
DISL,ioos:station:DISL:PPTA:1,2015-05-06T04:30:00Z,30.2791,-87.5561,80.7,1111122 
DISL,ioos:station:DISL:PPTA:1,2015-05-06T05:00:00Z,30.2791,-87.5561,80.2,1111122 
DISL,ioos:station:DISL:PPTA:1,2015-05-06T05:30:00Z,30.2791,-87.5561,79.94,1111122 
DISL,ioos:station:DISL:PPTA:1,2015-05-06T06:00:00Z,30.2791,-87.5561,79.29,1111122 
DISL,ioos:station:DISL:PPTA:1,2015-05-06T06:30:00Z,30.2791,-87.5561,79.87,1111122 
DISL,ioos:station:DISL:PPTA:1,2015-05-06T07:00:00Z,30.2791,-87.5561,80.3,1111122 
DISL,ioos:station:DISL:PPTA:1,2015-05-06T07:30:00Z,30.2791,-87.5561,83.0,1111122 
DISL,ioos:station:DISL:PPTA:1,2015-05-06T08:00:00Z,30.2791,-87.5561,84.1,1111122 
DISL,ioos:station:DISL:PPTA:1,2015-05-06T08:30:00Z,30.2791,-87.5561,89.7,1111122 
DISL,ioos:station:DISL:PPTA:1,2015-05-06T09:00:00Z,30.2791,-87.5561,91.4,1111122 
DISL,ioos:station:DISL:PPTA:1,2015-05-06T09:30:00Z,30.2791,-87.5561,93.9,1111122 
DISL,ioos:station:DISL:PPTA:1,2015-05-06T10:00:00Z,30.2791,-87.5561,93.1,1111122 
DISL,ioos:station:DISL:PPTA:1,2015-05-06T10:30:00Z,30.2791,-87.5561,90.0,1111122 
DISL,ioos:station:DISL:PPTA:1,2015-05-06T11:00:00Z,30.2791,-87.5561,89.1,1111122 
DISL,ioos:station:DISL:PPTA:1,2015-05-06T11:30:00Z,30.2791,-87.5561,88.1,1111122 
DISL,ioos:station:DISL:PPTA:1,2015-05-06T12:00:00Z,30.2791,-87.5561,87.8,1111122 
DISL,ioos:station:DISL:PPTA:1,2015-05-06T12:30:00Z,30.2791,-87.5561,86.0,1111122 
DISL,ioos:station:DISL:PPTA:1,2015-05-06T13:00:00Z,30.2791,-87.5561,80.8,1111122 
DISL,ioos:station:DISL:PPTA:1,2015-05-06T13:30:00Z,30.2791,-87.5561,80.7,1111122 
DISL,ioos:station:DISL:PPTA:1,2015-05-06T14:00:00Z,30.2791,-87.5561,77.15,1111122 
DISL,ioos:station:DISL:PPTA:1,2015-05-06T14:30:00Z,30.2791,-87.5561,78.66,1111122 
DISL,ioos:station:DISL:PPTA:1,2015-05-06T15:00:00Z,30.2791,-87.5561,79.27,1111122 
DISL,ioos:station:DISL:PPTA:1,2015-05-06T15:30:00Z,30.2791,-87.5561,79.51,1111122 
DISL,ioos:station:DISL:PPTA:1,2015-05-06T16:00:00Z,30.2791,-87.5561,79.1,1111122 
DISL,ioos:station:DISL:PPTA:1,2015-05-06T16:30:00Z,30.2791,-87.5561,78.08,1111122 
DISL,ioos:station:DISL:PPTA:1,2015-05-06T17:00:00Z,30.2791,-87.5561,77.63,1111122 
DISL,ioos:station:DISL:PPTA:1,2015-05-06T17:30:00Z,30.2791,-87.5561,76.54,1111122 
DISL,ioos:station:DISL:PPTA:1,2015-05-06T18:00:00Z,30.2791,-87.5561,75.14,1111122 
DISL,ioos:station:DISL:PPTA:1,2015-05-06T18:30:00Z,30.2791,-87.5561,74.39,1111122 
DISL,ioos:station:DISL:PPTA:1,2015-05-06T19:00:00Z,30.2791,-87.5561,72.35,1111122 
DISL,ioos:station:DISL:PPTA:1,2015-05-06T19:30:00Z,30.2791,-87.5561,72.14,1111122 
DISL,ioos:station:DISL:PPTA:1,2015-05-06T20:00:00Z,30.2791,-87.5561,72.66,1111122 
DISL,ioos:station:DISL:PPTA:1,2015-05-06T20:30:00Z,30.2791,-87.5561,72.01,1111122 
DISL,ioos:station:DISL:PPTA:1,2015-05-06T21:00:00Z,30.2791,-87.5561,72.25,1111122 
DISL,ioos:station:DISL:PPTA:1,2015-05-06T21:30:00Z,30.2791,-87.5561,73.58,1111122 
DISL,ioos:station:DISL:PPTA:1,2015-05-06T22:00:00Z,30.2791,-87.5561,76.07,1111122 
DISL,ioos:station:DISL:PPTA:1,2015-05-06T22:30:00Z,30.2791,-87.5561,75.25,1111122 
DISL,ioos:station:DISL:PPTA:1,2015-05-06T23:00:00Z,30.2791,-87.5561,74.14,1111122 
DISL,ioos:station:DISL:PPTA:1,2015-05-06T23:30:00Z,30.2791,-87.5561,72.78,1111122 
DISL,ioos:station:DISL:PPTA:1,2015-05-07T00:00:00Z,30.2791,-87.5561,74.05,1111122 